Location: Hains Lake
(37.8540°N, 99.8578°W)
Time: 01:54:56
(UTC+00:00)

ISS - Pass Details

Date: 06 March 2021
Orbit: 418 x 422 km, 51.6° (Epoch: 11 April)

Event Time Altitude Azimuth Distance (km) Brightness Sun altitude
Exits shadow 12:25:44 - 321° (NW) 2,221 -0.5 -8.3°
Reaches altitude 10° 12:27:52 10° 338° (NNW) 1,498 -1.2 -7.8°
Maximum altitude 12:30:21 19° 26° (NNE) 1,069 -1.4 -7.3°
Drops below altitude 10° 12:32:50 10° 74° (ENE) 1,495 0.5 -6.9°
Sets 12:35:21 0° 93° (E) 2,357 2.9 -6.4°
